Weather 🌤️

Recent data

Temperatures

Wind

Pressure

Humidity & Precipitation

Last data
obsTime qcStatus tempAvg heatindexAvg windspeedAvg windgustAvg winddirAvg pressureAvg humidityAvg precipRate precipTotal
2026-09-02 20:59:53 0 26.2 25.9 0.3 9 224 1000.68 39 0 0
2026-09-02 20:54:52 0 26.3 26 0.6 9 219 1000.68 39 0 0
2026-09-02 20:49:52 0 26.4 26.1 2.7 9 227 1000.51 38.6 0 0
2026-09-02 20:44:52 1 26.4 26 4.2 9 234 1000.51 38.4 0 0
2026-09-02 20:39:52 1 26.5 26.3 6.2 9 236 1000.34 38.1 0 0
2026-09-02 20:34:51 1 26.7 26.5 5.6 9 216 1000.51 38 0 0
2026-09-02 20:29:56 1 26.8 26.6 1.7 9 229 1000.34 38 0 0
2026-09-02 20:24:52 1 27 26.7 4.2 9 224 1000.17 38 0 0
2026-09-02 20:19:52 1 27.1 26.9 2.5 9 214 1000.17 38.4 0 0
2026-09-02 20:14:52 1 27.2 27 4.7 8.4 241 1000.17 38.8 0 0
2026-09-02 20:09:54 1 27.3 27 3.5 6.1 223 1000.17 39 0 0
2026-09-02 20:04:53 1 27.3 27.1 0.8 6.1 215 1000 39 0 0

Hourly data

Temperatures

Wind

Pressure

Humidity & Precipitation

Last data
obsTime qcStatus tempAvg heatindexAvg windspeedAvg windgustAvg winddirAvg pressureAvg humidityAvg precipRate precipTotal
2026-09-02 20:59:53 0 26.8 26.5 3.1 8.5 228 1000.34 38.5 0 0
2026-09-02 19:59:52 1 27.9 27.5 1.9 8.3 211 1000 38.5 0 0
2026-09-02 18:59:52 1 28.3 27.8 4 17.3 217 999.66 38.2 0 0
2026-09-02 17:59:52 1 27.9 27.7 3.5 9.5 216 1000 41.2 0 0
2026-09-02 16:59:52 1 27.6 27.5 3.6 10.1 263 1000 42.7 0 0
2026-09-02 15:59:52 1 27 27.1 4 8.9 232 1000.34 44.7 0 0
2026-09-02 14:59:52 1 26.4 26.3 3.6 10.5 245 1000.68 46.6 0 0
2026-09-02 13:59:52 1 25.5 25.4 3.4 9.9 210 1001.02 49.1 0 0
2026-09-02 12:59:52 1 24.6 24.4 2.9 7.3 213 1001.36 51.6 0 0
2026-09-02 11:59:52 1 23.1 22.8 2.5 6.1 201 1001.53 54.3 0 0
2026-09-02 10:59:52 1 20.6 20.5 2.2 5.6 219 1001.53 58.6 0 0
2026-09-02 09:59:51 0 19.2 19.2 1 3.6 228 1001.19 60.8 0 0
2026-09-02 08:59:54 0 18.6 18.6 0.3 2.9 197 1000.85 61 0 0
2026-09-02 07:59:53 0 18.5 18.5 0.3 2.9 185 1000.51 60.7 0 0
2026-09-02 06:59:52 0 18.8 18.8 0.5 2.6 177 1000 59.3 0 0
2026-09-02 05:59:56 0 19.7 19.7 0.6 4 215 1000.17 56.8 0 0
2026-09-02 04:59:54 0 20.3 20.3 1.1 4.2 226 1000 55.3 0 0
2026-09-02 03:59:53 0 20.9 20.8 1.6 5.9 227 1000 53.7 0 0
2026-09-02 02:59:54 0 21.4 21 1.1 4.2 227 1000 52.5 0 0
2026-09-02 01:59:56 0 22 21.6 1.6 6.2 222 1000 51.6 0 0
2026-09-02 00:59:56 0 22.6 22.2 2.1 7.6 229 1000 49.8 0 0
2026-09-01 23:59:56 0 23.1 22.7 3.7 7 227 999.66 47.6 0 0
2026-09-01 22:59:51 0 23.8 23.5 2.6 6.1 227 999.66 46 0 0
2026-09-01 21:59:56 0 24.6 24.2 2.1 5.3 227 999.32 43.3 0 0